Location: Pella
(41.4080°N, 92.9160°W)
Time: 16:18:34
(UTC-05:00)

Iridium 91 - Visible Passes

Search period start: 25 June 2016 00:00
Search period end: 05 July 2016 00:00
Orbit: 776 x 779 km, 86.4° (Epoch: 25 June)

Date Brightness Start Highest point End Pass type
(mag) Time Alt. Az. Time Alt. Az. Time Alt. Az.
25 Jun 7.2 00:53:11 10° NNW 00:57:08 22° W 00:58:37 20° WSW visible
25 Jun 6.9 22:38:51 10° NNE 22:43:00 23° ENE 22:44:47 20° ESE visible
26 Jun 6.4 00:19:01 10° NNW 00:23:51 40° W 00:25:16 33° WSW visible
26 Jun 7.5 22:06:47 10° NE 22:09:08 13° ENE 22:11:26 10° E visible
26 Jun 5.6 23:45:14 10° N 23:50:27 74° W 23:51:55 47° SSW visible
27 Jun 5.6 23:11:44 10° N 23:16:55 61° E 23:18:35 40° SE visible
28 Jun 7.7 00:54:04 10° NW 00:57:03 16° WNW 00:59:04 13° WSW visible
28 Jun 6.4 22:38:33 10° NNE 22:43:16 33° E 22:45:15 25° ESE visible
29 Jun 7.0 00:19:27 10° NNW 00:23:50 28° W 00:25:44 22° WSW visible
29 Jun 7.2 22:05:51 10° NNE 22:09:28 19° ENE 22:11:57 14° ESE visible
29 Jun 6.1 23:45:27 10° NNW 23:50:30 51° W 23:52:25 34° SW visible
30 Jun 5.4 23:11:48 10° N 23:17:03 87° E 23:19:07 38° S visible
01 Jul 8.1 00:56:03 10° WNW 00:56:54 10° WNW 00:57:47 10° W visible
01 Jul 5.9 22:38:25 10° N 22:43:28 47° E 22:45:49 28° SE visible
02 Jul 7.6 00:20:06 10° NW 00:23:46 20° W 00:26:18 14° WSW visible
02 Jul 6.7 22:05:23 10° NNE 22:09:46 26° ENE 22:12:32 17° ESE visible
02 Jul 6.7 23:45:48 10° NNW 23:50:31 35° W 23:53:00 23° SW visible
03 Jul 7.4 21:33:02 10° NE 21:35:55 15° ENE 21:38:48 10° ESE visible
03 Jul 5.8 23:11:57 10° N 23:17:08 65° W 23:19:44 29° SSW visible
04 Jul 5.5 22:38:24 10° N 22:43:38 69° E 22:46:28 27° SSE visible
